Regional Weather Roundup
Issued by NWS

Home | Current Version | Previous Version | Graphics & Text | Print | Product List | Glossary On
Versions: 1 2 3 4 5 6 7 8 9 10 11 12 13 14 15 16 17 18 19 20 21 22 23 24 25 26 27 28 29 30 31 32 33 34 35 36 37 38 39 40 41 42 43 44 45 46 47 48 49 50
000
ASUS43 KDMX 291007
RWRIA

WEATHER ROUNDUP FOR IOWA
NATIONAL WEATHER SERVICE DES MOINES IA
500 AM CDT SAT AUG 29 2015

NOTE: "FAIR" INDICATES FEW OR NO CLOUDS BELOW 12,000 FEET WITH NO
SIGNIFICANT WEATHER AND/OR OBSTRUCTIONS TO VISIBILITY.

* - THESE STATIONS ARE NOT NWS STATIONS...THUS NOT UNDER NWS
QUALITY CONTROL.  THEY ALSO DO NOT REPORT WEATHER SUCH
AS PRECIPITATION OR FOG.

IAZ001>003-012>014-020>022-031>034-043>046-291100-
   NORTHWEST IOWA

CITY           SKY/WX    TMP DP  RH WIND       PRES   REMARKS
CARROLL *      CLOUDY    59  59 100 N8        30.00R FOG
CHEROKEE *     CLOUDY    57  57 100 NE5       30.03R FOG
DENISON *      CLOUDY    59  59 100 N9        29.99S FOG
LE MARS *      CLOUDY    59  59 100 N3        30.04R
ORANGE CITY *  CLEAR     57  55  94 CALM      30.04R
SHELDON *      FOG       57  57 100 NE7       30.03R VSB 1/4
SIOUX CITY     CLOUDY    62  56  80 NE5       30.03R
SPENCER        CLOUDY    58  55  90 NE8       30.04R FOG
STORM LAKE *   FOG       57  57 100 NE6       30.03S VSB 1/2
$$

IAZ055>058-069>071-079>083-090>094-291100-
   SOUTHWEST IOWA

CITY           SKY/WX    TMP DP  RH WIND       PRES   REMARKS
ATLANTIC *     CLOUDY    61  61 100 N9        30.00R
AUDUBON *      CLOUDY    61  57  88 N8        30.01R
CLARINDA *     CLOUDY    64  64 100 N9        29.99R FOG
COUNCIL BLFS *   N/A     61  61 100 N13       30.00R
CRESTON *      FOG       63  63 100 N8        29.98S VSB 1/2
HARLAN  *      CLOUDY    59 N/A N/A N14       30.03S
LAMONI         CLOUDY    69  68  96 NW6       29.94S FOG
RED OAK *      CLOUDY    63  63 100 N10       29.99R
SHENANDOAH *   CLOUDY    64  63  94 N8G14     29.99R
$$

IAZ047>049-059>061-072>074-084-291100-
   CENTRAL IOWA

CITY           SKY/WX    TMP DP  RH WIND       PRES   REMARKS
AMES           CLOUDY    62  61  96 N10       29.96R
ANKENY *       CLOUDY    63  63 100 N8        29.95R
CHARITON *     CLOUDY    70  68  94 W5        29.94S
DES MOINES     CLOUDY    65  62  90 NW7       29.95R
GRINNELL*      CLOUDY    66  66 100 CALM      29.94S FOG
KNOXVILLE *    CLOUDY    68  66  94 W10       29.93R FOG
MARSHALLTOWN   CLOUDY    65  65 100 N7        29.94R FOG
PELLA *        CLOUDY    68  68 100 W3        29.94S
PERRY *        CLOUDY    63  61  94 N8        29.98R
$$

IAZ004>006-015-016-023>025-035-036-291100-
   NORTH CENTRAL IOWA

CITY           SKY/WX    TMP DP  RH WIND       PRES   REMARKS
ALGONA *       FOG       59  59 100 N8        30.02S VSB 3/4
CLARION *      CLOUDY    61  59  94 N6        29.99S FOG
ESTHERVILLE    FOG       56  56 100 NE7       30.03S VSB 1/2
FORT DODGE *   CLOUDY    59  57  94 N6        30.01R
MASON CITY     FOG       60  60 100 NE6       30.01R VSB 1/2
FOREST CITY *  CLOUDY    59  59 100 N5        30.01R FOG
IOWA FALLS *   FOG       63  61  94 N5        29.98R VSB 3/4
$$

IAZ007>011-017>019-026>030-037>042-050>054-066-291100-
   NORTHEAST IOWA

CITY           SKY/WX    TMP DP  RH WIND       PRES   REMARKS
CEDAR RAPIDS   CLOUDY    66  66 100 S5        29.93S
CHARLES CITY * CLOUDY    61  61 100 NE6G13    29.98S FOG
CLINTON *      CLOUDY    64  63  94 S10       29.97S
DECORAH *      CLOUDY    61  61 100 VRB6      29.97S FOG
DUBUQUE        CLOUDY    64  63  96 S8        29.96S FOG
MONTICELLO *   CLOUDY    66  64  94 CALM      29.94S
OELWEIN *        N/A     64  64 100 CALM      29.96S
WATERLOO       CLOUDY    65  64  97 NE3       29.94S FOG
$$

IAZ064-065-067-068-078-291100-
   EAST CENTRAL IOWA

CITY           SKY/WX    TMP DP  RH WIND       PRES   REMARKS
DAVENPORT      CLOUDY    65  63  93 S6        29.95S
IOWA CITY      CLOUDY    67  67 100 VRB3      29.95R
MT. PLEASANT * CLOUDY    70  61  73 S8        29.95S
MUSCATINE *    CLOUDY    68  64  88 S3        29.94S
QUAD CITIES    CLOUDY    68  62  81 S8        29.94F
$$

IAZ062-063-075>077-085>089-095>099-291100-
   SOUTHEAST IOWA

CITY           SKY/WX    TMP DP  RH WIND       PRES   REMARKS
BURLINGTON     CLOUDY    69  63  81 S9        29.95S
FAIRFIELD *    CLOUDY    68  63  83 S8        29.94S
FORT MADISON * CLOUDY    68  63  83 S8        29.96S
KEOKUK *       PTCLDY    70  63  78 S9        29.94S
OSKALOOSA *    CLOUDY    66  64  94 CALM      29.94S
CENTERVILLE *  CLOUDY    68  66  94 S6        29.95S
OTTUMWA        CLOUDY    67  66  97 S5        29.92S
WASHINGTON *     N/A    N/A N/A N/A MISG        N/A
$$

ABBREVIATIONS USED IN REMARKS
   TC - TEMPERATURES IN CELSIUS
  WCI - WIND CHILL INDEX
   HX - HEAT INDEX
  VSB - VISIBILITY
$$



USA.gov is the U.S. government's official web portal to all federal, state and local government web resources and services.